| time (UTC) | temp F | wind direction | speed knots | gust knots | rain 1hr in | rain 24hr in | rain mn in | humidity % | barometer mb |
| 20260510000042 | 81 | 98 | 5.2 | 9.6 | 0.00 | 0.01 | 0.01 | 47 | 1007.1 |
| 20260509235530 | 81 | 123 | 6.1 | 10.4 | 0.00 | 0.56 | 0.01 | 46 | 1007.1 |
| 20260509235030 | 82 | 128 | 6.1 | 10.4 | 0.00 | 0.56 | 0.01 | 46 | 1007.2 |
| 20260509234600 | 82 | 129 | 5.2 | 11.3 | 0.00 | 0.56 | 0.01 | 45 | 1007.2 |
| 20260509234030 | 83 | 104 | 7.0 | 11.3 | 0.00 | 0.56 | 0.01 | 43 | 1007.2 |
| 20260509233530 | 83 | 124 | 7.0 | 12.2 | 0.00 | 0.56 | 0.01 | 42 | 1007.2 |
| 20260509233043 | 84 | 92 | 7.8 | 12.2 | 0.00 | 0.56 | 0.01 | 43 | 1007.3 |
| 20260509232533 | 84 | 98 | 7.8 | 12.2 | 0.00 | 0.56 | 0.01 | 43 | 1007.3 |
| 20260509232032 | 84 | 144 | 8.7 | 12.2 | 0.00 | 0.56 | 0.01 | 43 | 1007.4 |
| 20260509231539 | 84 | 100 | 6.1 | 11.3 | 0.00 | 0.56 | 0.01 | 42 | 1007.5 |
| 20260509231026 | 84 | 126 | 6.1 | 11.3 | 0.00 | 0.56 | 0.01 | 42 | 1007.6 |
| 20260509230530 | 85 | 90 | 7.0 | 12.2 | 0.00 | 0.56 | 0.01 | 41 | 1007.6 |
| 20260509230038 | 85 | 126 | 7.0 | 13.0 | 0.00 | 0.56 | 0.01 | 41 | 1007.7 |
| 20260509225527 | 85 | 79 | 6.1 | 13.0 | 0.00 | 0.56 | 0.01 | 41 | 1007.7 |
| 20260509225031 | 86 | 125 | 6.1 | 13.0 | 0.00 | 0.56 | 0.01 | 40 | 1007.8 |
| 20260509224538 | 86 | 113 | 7.0 | 9.6 | 0.00 | 0.56 | 0.01 | 39 | 1007.9 |
| 20260509224026 | 86 | 92 | 6.1 | 11.3 | 0.00 | 0.56 | 0.01 | 38 | 1007.9 |
| 20260509223529 | 86 | 113 | 5.2 | 11.3 | 0.00 | 0.56 | 0.01 | 37 | 1008.0 |
| 20260509223045 | 86 | 137 | 7.0 | 11.3 | 0.00 | 0.56 | 0.01 | 37 | 1008.0 |
| 20260509222528 | 86 | 119 | 4.3 | 9.6 | 0.00 | 0.56 | 0.01 | 37 | 1008.1 |
| 20260509222027 | 87 | 96 | 5.2 | 9.6 | 0.00 | 0.56 | 0.01 | 37 | 1008.1 |
| 20260509221602 | 87 | 78 | 5.2 | 8.7 | 0.00 | 0.56 | 0.01 | 38 | 1008.1 |
| 20260509221030 | 86 | 120 | 3.5 | 10.4 | 0.00 | 0.56 | 0.01 | 36 | 1008.1 |
| 20260509220529 | 86 | 130 | 5.2 | 10.4 | 0.00 | 0.56 | 0.01 | 37 | 1008.2 |
| 20260509220048 | 86 | 136 | 3.5 | 7.8 | 0.00 | 0.56 | 0.01 | 37 | 1008.2 |
| 20260509215530 | 87 | 61 | 4.3 | 9.6 | 0.00 | 0.56 | 0.01 | 35 | 1008.2 |
| 20260509215030 | 86 | 70 | 6.1 | 9.6 | 0.00 | 0.56 | 0.01 | 36 | 1008.3 |
| 20260509214540 | 86 | 130 | 4.3 | 9.6 | 0.00 | 0.56 | 0.01 | 35 | 1008.3 |
| 20260509214026 | 87 | 182 | 1.7 | 9.6 | 0.00 | 0.56 | 0.01 | 35 | 1008.3 |
| 20260509213527 | 87 | 148 | 4.3 | 9.6 | 0.00 | 0.56 | 0.01 | 34 | 1008.4 |
| 20260509213038 | 87 | 134 | 3.5 | 8.7 | 0.00 | 0.56 | 0.01 | 35 | 1008.4 |
| 20260509212532 | 87 | 141 | 3.5 | 7.8 | 0.00 | 0.56 | 0.01 | 35 | 1008.4 |
| 20260509212029 | 86 | 98 | 1.7 | 7.8 | 0.00 | 0.56 | 0.01 | 36 | 1008.5 |
| 20260509211538 | 86 | 100 | 3.5 | 8.7 | 0.00 | 0.56 | 0.01 | 37 | 1008.6 |
| 20260509211029 | 86 | 82 | 5.2 | 10.4 | 0.00 | 0.56 | 0.01 | 36 | 1008.6 |
| 20260509210529 | 86 | 118 | 3.5 | 10.4 | 0.00 | 0.56 | 0.01 | 36 | 1008.7 |
| 20260509210037 | 87 | 143 | 4.3 | 9.6 | 0.00 | 0.56 | 0.01 | 34 | 1008.8 |
| 20260509205529 | 86 | 172 | 2.6 | 8.7 | 0.00 | 0.56 | 0.01 | 34 | 1008.8 |
| 20260509205029 | 87 | 88 | 3.5 | 9.6 | 0.00 | 0.56 | 0.01 | 32 | 1008.9 |
| 20260509204541 | 87 | 98 | 4.3 | 9.6 | 0.00 | 0.56 | 0.01 | 33 | 1008.9 |
| 20260509204030 | 87 | 121 | 1.7 | 8.7 | 0.00 | 0.56 | 0.01 | 34 | 1009.0 |
| 20260509203530 | 87 | 111 | 6.1 | 8.7 | 0.00 | 0.56 | 0.01 | 33 | 1009.0 |
| 20260509203045 | 86 | 349 | 1.7 | 7.8 | 0.00 | 0.56 | 0.01 | 34 | 1009.1 |
| 20260509202530 | 86 | 326 | 1.7 | 7.8 | 0.00 | 0.56 | 0.01 | 34 | 1009.1 |
| 20260509202032 | 87 | 66 | 4.3 | 7.8 | 0.00 | 0.56 | 0.01 | 34 | 1009.2 |
| 20260509201537 | 86 | 130 | 1.7 | 4.3 | 0.00 | 0.56 | 0.01 | 35 | 1009.3 |
| 20260509201033 | 87 | 122 | 0.9 | 7.8 | 0.00 | 0.56 | 0.01 | 37 | 1009.3 |
| 20260509200532 | 85 | 118 | 1.7 | 7.8 | 0.00 | 0.56 | 0.01 | 36 | 1009.3 |
| 20260509200043 | 85 | 138 | 2.6 | 7.8 | 0.00 | 0.56 | 0.01 | 37 | 1009.4 |
| 20260509195530 | 86 | 167 | 2.6 | 6.1 | 0.00 | 0.56 | 0.01 | 36 | 1009.4 |
| 20260509195029 | 85 | 104 | 2.6 | 6.1 | 0.00 | 0.56 | 0.01 | 39 | 1009.5 |
| 20260509194538 | 86 | 186 | 1.7 | 5.2 | 0.00 | 0.56 | 0.01 | 37 | 1009.5 |
| 20260509194029 | 85 | 91 | 2.6 | 6.1 | 0.00 | 0.56 | 0.01 | 36 | 1009.6 |
| 20260509193529 | 85 | 66 | 1.7 | 7.0 | 0.00 | 0.56 | 0.01 | 38 | 1009.7 |
| 20260509193051 | 85 | 26 | 1.7 | 7.0 | 0.00 | 0.56 | 0.01 | 38 | 1009.8 |
| 20260509192530 | 85 | 94 | 2.6 | 7.0 | 0.00 | 0.56 | 0.01 | 38 | 1009.7 |
| 20260509192041 | 86 | 52 | 2.6 | 7.0 | 0.00 | 0.56 | 0.01 | 39 | 1009.7 |
| 20260509191606 | 86 | 46 | 0.9 | 7.0 | 0.00 | 0.56 | 0.01 | 37 | 1009.7 |
| 20260509191032 | 87 | 0 | 0.9 | 7.0 | 0.00 | 0.56 | 0.01 | 36 | 1009.9 |
| 20260509190533 | 86 | 36 | 3.5 | 7.0 | 0.00 | 0.56 | 0.01 | 37 | 1009.9 |
| 20260509190047 | 85 | 154 | 3.5 | 7.0 | 0.00 | 0.56 | 0.01 | 39 | 1009.9 |
| 20260509185530 | 85 | 98 | 0.9 | 6.1 | 0.00 | 0.56 | 0.01 | 38 | 1009.9 |
| 20260509185030 | 84 | 5 | 1.7 | 7.0 | 0.00 | 0.56 | 0.01 | 38 | 1010.0 |
| 20260509184541 | 84 | 85 | 3.5 | 7.0 | 0.00 | 0.56 | 0.01 | 42 | 1010.1 |
| 20260509184029 | 84 | 88 | 0.9 | 6.1 | 0.00 | 0.56 | 0.01 | 40 | 1010.2 |
| 20260509183532 | 83 | 55 | 2.6 | 8.7 | 0.00 | 0.56 | 0.01 | 40 | 1010.3 |
| 20260509183042 | 83 | 101 | 5.2 | 8.7 | 0.00 | 0.56 | 0.01 | 41 | 1010.3 |
| 20260509182530 | 83 | 77 | 5.2 | 8.7 | 0.00 | 0.56 | 0.01 | 41 | 1010.4 |
| 20260509182029 | 83 | 104 | 6.1 | 8.7 | 0.00 | 0.56 | 0.01 | 41 | 1010.4 |
| 20260509181540 | 83 | 115 | 3.5 | 7.8 | 0.00 | 0.56 | 0.01 | 43 | 1010.6 |
| 20260509181032 | 81 | 163 | 1.7 | 7.8 | 0.00 | 0.56 | 0.01 | 43 | 1010.6 |
| 20260509180530 | 82 | 148 | 4.3 | 7.8 | 0.00 | 0.56 | 0.01 | 44 | 1010.7 |
| 20260509180046 | 82 | 78 | 0.9 | 7.8 | 0.00 | 0.56 | 0.01 | 44 | 1010.9 |
| 20260509175530 | 82 | 133 | 5.2 | 7.8 | 0.00 | 0.56 | 0.01 | 43 | 1011.0 |
| 20260509175030 | 81 | 112 | 2.6 | 7.0 | 0.00 | 0.56 | 0.01 | 42 | 1011.0 |
| 20260509174548 | 81 | 134 | 3.5 | 7.0 | 0.00 | 0.56 | 0.01 | 45 | 1011.1 |
| 20260509174029 | 81 | 69 | 3.5 | 7.0 | 0.00 | 0.56 | 0.01 | 44 | 1011.2 |
| 20260509173529 | 81 | 60 | 0.9 | 5.2 | 0.00 | 0.56 | 0.01 | 46 | 1011.3 |
| 20260509173052 | 81 | 61 | 1.7 | 7.8 | 0.00 | 0.56 | 0.01 | 43 | 1011.4 |
| 20260509172530 | 80 | 110 | 4.3 | 7.8 | 0.00 | 0.56 | 0.01 | 46 | 1011.5 |
| 20260509172031 | 80 | 124 | 2.6 | 6.1 | 0.00 | 0.56 | 0.01 | 47 | 1011.5 |
| 20260509171547 | 79 | 0 | 1.7 | 7.0 | 0.00 | 0.56 | 0.01 | 48 | 1011.5 |
| 20260509171030 | 79 | 150 | 3.5 | 7.8 | 0.00 | 0.56 | 0.01 | 47 | 1011.5 |
| 20260509170530 | 80 | 159 | 4.3 | 7.8 | 0.00 | 0.56 | 0.01 | 52 | 1011.6 |
| 20260509170047 | 78 | 167 | 3.5 | 7.8 | 0.00 | 0.56 | 0.01 | 53 | 1011.5 |
| 20260509165532 | 78 | 136 | 2.6 | 8.7 | 0.00 | 0.56 | 0.01 | 56 | 1011.5 |
| 20260509165029 | 78 | 120 | 4.3 | 8.7 | 0.00 | 0.56 | 0.01 | 59 | 1011.7 |
| 20260509164549 | 77 | 152 | 4.3 | 7.8 | 0.00 | 0.56 | 0.01 | 59 | 1011.7 |
| 20260509164033 | 77 | 108 | 2.6 | 8.7 | 0.00 | 0.56 | 0.01 | 65 | 1011.7 |
| 20260509163529 | 76 | 186 | 3.5 | 8.7 | 0.00 | 0.56 | 0.01 | 64 | 1011.8 |
| 20260509163105 | 76 | 144 | 1.7 | 8.7 | 0.00 | 0.56 | 0.01 | 67 | 1011.7 |
| 20260509162531 | 75 | 159 | 5.2 | 8.7 | 0.00 | 0.56 | 0.01 | 67 | 1011.6 |
| 20260509162031 | 75 | 160 | 4.3 | 7.8 | 0.00 | 0.56 | 0.01 | 67 | 1011.8 |
| 20260509161537 | 75 | 188 | 5.2 | 7.8 | 0.00 | 0.56 | 0.01 | 69 | 1011.7 |
| 20260509161033 | 74 | 219 | 3.5 | 7.8 | 0.00 | 0.56 | 0.01 | 71 | 1011.7 |
| 20260509160530 | 73 | 126 | 4.3 | 9.6 | 0.00 | 0.56 | 0.01 | 73 | 1011.6 |
| 20260509160038 | 74 | 160 | 5.2 | 9.6 | 0.00 | 0.56 | 0.01 | 75 | 1011.6 |
| 20260509155529 | 73 | 147 | 3.5 | 9.6 | 0.00 | 0.56 | 0.01 | 74 | 1011.8 |
| 20260509155030 | 74 | 180 | 5.2 | 9.6 | 0.00 | 0.56 | 0.01 | 74 | 1011.8 |
| 20260509154546 | 73 | 201 | 3.5 | 8.7 | 0.00 | 0.56 | 0.01 | 77 | 1011.8 |
| 20260509154030 | 73 | 145 | 4.3 | 8.7 | 0.00 | 0.56 | 0.01 | 75 | 1011.7 |
| 20260509153533 | 73 | 136 | 5.2 | 8.7 | 0.00 | 0.56 | 0.01 | 74 | 1011.6 |
| 20260509153108 | 73 | 138 | 1.7 | 7.0 | 0.00 | 0.56 | 0.01 | 77 | 1011.7 |
| 20260509152532 | 72 | 128 | 2.6 | 9.6 | 0.00 | 0.56 | 0.01 | 76 | 1011.7 |
| 20260509152032 | 71 | 139 | 4.3 | 9.6 | 0.00 | 0.56 | 0.01 | 77 | 1011.9 |
| 20260509151543 | 71 | 110 | 4.3 | 8.7 | 0.00 | 0.56 | 0.01 | 77 | 1011.8 |
| 20260509151029 | 70 | 117 | 3.5 | 8.7 | 0.00 | 0.56 | 0.01 | 79 | 1011.8 |
| 20260509150531 | 70 | 156 | 4.3 | 8.7 | 0.00 | 0.56 | 0.01 | 81 | 1011.8 |
| 20260509150042 | 69 | 184 | 4.3 | 8.7 | 0.00 | 0.56 | 0.01 | 83 | 1011.8 |
| 20260509145531 | 69 | 131 | 3.5 | 7.0 | 0.00 | 0.56 | 0.01 | 85 | 1011.9 |
| 20260509145030 | 68 | 123 | 2.6 | 7.0 | 0.00 | 0.56 | 0.01 | 85 | 1011.9 |
| 20260509144546 | 68 | 140 | 1.7 | 7.0 | 0.00 | 0.56 | 0.01 | 85 | 1011.8 |
| 20260509144028 | 68 | 103 | 1.7 | 6.1 | 0.00 | 0.56 | 0.01 | 86 | 1011.6 |
| 20260509143529 | 68 | 97 | 3.5 | 6.1 | 0.00 | 0.56 | 0.01 | 86 | 1011.4 |
| 20260509143038 | 67 | 82 | 2.6 | 6.1 | 0.00 | 0.56 | 0.01 | 87 | 1011.4 |
| 20260509142528 | 67 | 92 | 2.6 | 7.0 | 0.00 | 0.56 | 0.01 | 88 | 1011.4 |
| 20260509142028 | 67 | 116 | 4.3 | 7.0 | 0.00 | 0.56 | 0.01 | 88 | 1011.3 |
| 20260509141545 | 66 | 92 | 3.5 | 7.0 | 0.00 | 0.56 | 0.01 | 90 | 1011.3 |
| 20260509141028 | 66 | 54 | 0.9 | 3.5 | 0.00 | 0.56 | 0.01 | 91 | 1011.3 |
| 20260509140528 | 65 | 130 | 0.0 | 3.5 | 0.00 | 0.56 | 0.01 | 93 | 1011.4 |
| 20260509140038 | 64 | 5 | 0.9 | 3.5 | 0.00 | 0.56 | 0.01 | 93 | 1011.5 |
| 20260509135529 | 64 | 5 | 0.0 | 2.6 | 0.00 | 0.56 | 0.01 | 94 | 1011.5 |
| 20260509135028 | 64 | 0 | 0.0 | 2.6 | 0.00 | 0.56 | 0.01 | 94 | 1011.5 |
| 20260509134553 | 63 | 5 | 0.0 | 2.6 | 0.00 | 0.56 | 0.01 | 95 | 1011.4 |
| 20260509134031 | 63 | 5 | 0.9 | 2.6 | 0.00 | 0.56 | 0.01 | 95 | 1011.4 |
| 20260509133532 | 63 | 5 | 0.0 | 1.7 | 0.00 | 0.56 | 0.01 | 95 | 1011.4 |
| 20260509133042 | 62 | 5 | 0.0 | 1.7 | 0.00 | 0.56 | 0.01 | 95 | 1011.2 |
| 20260509132528 | 62 | 0 | 0.0 | 1.7 | 0.00 | 0.56 | 0.01 | 95 | 1011.1 |
| 20260509132027 | 61 | 0 | 0.0 | 1.7 | 0.00 | 0.56 | 0.01 | 95 | 1011.0 |
| 20260509131557 | 60 | 0 | 0.0 | 1.7 | 0.00 | 0.56 | 0.01 | 95 | 1011.0 |
| 20260509131029 | 60 | 0 | 0.0 | 1.7 | 0.00 | 0.56 | 0.01 | 95 | 1011.0 |
| 20260509130531 | 60 | 0 | 0.0 | 1.7 | 0.00 | 0.56 | 0.01 | 95 | 1010.9 |
| 20260509130049 | 60 | 5 | 0.0 | 1.7 | 0.00 | 0.56 | 0.01 | 95 | 1010.8 |
| 20260509125528 | 59 | 0 | 0.0 | 1.7 | 0.00 | 0.56 | 0.01 | 95 | 1010.7 |
| 20260509125028 | 59 | 0 | 0.0 | 0.0 | 0.00 | 0.56 | 0.01 | 95 | 1010.7 |
| 20260509124543 | 59 | 0 | 0.0 | 1.7 | 0.00 | 0.56 | 0.01 | 95 | 1010.7 |
| 20260509124029 | 58 | 0 | 0.0 | 1.7 | 0.00 | 0.56 | 0.01 | 95 | 1010.5 |
| 20260509123529 | 58 | 5 | 0.0 | 1.7 | 0.01 | 0.56 | 0.01 | 95 | 1010.5 |
| 20260509123049 | 58 | 0 | 0.0 | 0.0 | 0.01 | 0.56 | 0.01 | 94 | 1010.4 |
| 20260509122554 | 57 | 0 | 0.0 | 0.0 | 0.01 | 0.56 | 0.01 | 95 | 1010.3 |
| 20260509122028 | 57 | 0 | 0.0 | 0.0 | 0.01 | 0.56 | 0.01 | 94 | 1010.4 |
| 20260509121539 | 57 | 0 | 0.0 | 1.7 | 0.01 | 0.56 | 0.01 | 94 | 1010.4 |
| 20260509121028 | 56 | 0 | 0.0 | 2.6 | 0.01 | 0.56 | 0.01 | 94 | 1010.3 |
| 20260509120530 | 56 | 5 | 0.0 | 2.6 | 0.01 | 0.56 | 0.01 | 94 | 1010.3 |
| 20260509120039 | 56 | 5 | 0.9 | 1.7 | 0.01 | 0.56 | 0.01 | 94 | 1010.3 |
| 20260509115528 | 56 | 0 | 0.0 | 2.6 | 0.01 | 0.56 | 0.01 | 94 | 1010.3 |
| 20260509115028 | 56 | 0 | 0.0 | 2.6 | 0.01 | 0.56 | 0.01 | 94 | 1010.3 |
| 20260509114538 | 56 | 5 | 0.9 | 1.7 | 0.01 | 0.56 | 0.01 | 94 | 1010.2 |
| 20260509114028 | 56 | 0 | 0.0 | 2.6 | 0.01 | 0.56 | 0.01 | 94 | 1010.2 |
| 20260509113533 | 57 | 0 | 0.0 | 2.6 | 0.00 | 0.55 | 0.00 | 94 | 1010.1 |
| 20260509113038 | 57 | 5 | 0.9 | 2.6 | 0.00 | 0.55 | 0.00 | 94 | 1009.9 |
| 20260509112528 | 57 | 5 | 0.0 | 2.6 | 0.00 | 0.55 | 0.00 | 94 | 1009.9 |
| 20260509112028 | 57 | 5 | 0.0 | 2.6 | 0.00 | 0.55 | 0.00 | 94 | 1009.7 |
| 20260509111542 | 56 | 5 | 0.9 | 2.6 | 0.00 | 0.55 | 0.00 | 94 | 1009.6 |
| 20260509111029 | 56 | 0 | 0.0 | 0.0 | 0.00 | 0.55 | 0.00 | 94 | 1009.8 |
| 20260509110531 | 56 | 0 | 0.0 | 0.0 | 0.00 | 0.55 | 0.00 | 93 | 1009.7 |
| 20260509110044 | 57 | 0 | 0.0 | 0.0 | 0.00 | 0.55 | 0.00 | 93 | 1009.5 |
| 20260509105529 | 57 | 0 | 0.0 | 0.0 | 0.00 | 0.55 | 0.00 | 93 | 1009.5 |
| 20260509105031 | 57 | 0 | 0.0 | 0.0 | 0.00 | 0.55 | 0.00 | 93 | 1009.6 |
| 20260509104548 | 57 | 0 | 0.0 | 0.0 | 0.00 | 0.55 | 0.00 | 93 | 1009.6 |
| 20260509104027 | 57 | 0 | 0.0 | 0.0 | 0.00 | 0.55 | 0.00 | 93 | 1009.6 |
| 20260509103529 | 57 | 0 | 0.0 | 0.0 | 0.00 | 0.55 | 0.00 | 93 | 1009.7 |
| 20260509103038 | 57 | 0 | 0.0 | 0.0 | 0.00 | 0.55 | 0.00 | 93 | 1009.7 |
| 20260509102532 | 57 | 0 | 0.0 | 0.0 | 0.00 | 0.55 | 0.00 | 93 | 1009.8 |
| 20260509102029 | 57 | 0 | 0.0 | 0.0 | 0.00 | 0.55 | 0.00 | 93 | 1009.8 |
| 20260509101538 | 57 | 0 | 0.0 | 0.0 | 0.00 | 0.55 | 0.00 | 93 | 1009.9 |
| 20260509101028 | 58 | 0 | 0.0 | 0.0 | 0.00 | 0.55 | 0.00 | 93 | 1010.0 |
| 20260509100528 | 58 | 0 | 0.0 | 0.0 | 0.00 | 0.55 | 0.00 | 93 | 1010.1 |
| 20260509100044 | 58 | 0 | 0.0 | 0.0 | 0.00 | 0.55 | 0.00 | 93 | 1010.2 |
| 20260509095528 | 58 | 0 | 0.0 | 0.9 | 0.00 | 0.55 | 0.00 | 93 | 1010.1 |
| 20260509095027 | 58 | 0 | 0.0 | 1.7 | 0.00 | 0.55 | 0.00 | 93 | 1010.1 |
| 20260509094539 | 58 | 0 | 0.0 | 3.5 | 0.00 | 0.55 | 0.00 | 93 | 1010.1 |
| 20260509094028 | 58 | 5 | 0.9 | 3.5 | 0.00 | 0.55 | 0.00 | 93 | 1010.1 |
| 20260509093529 | 58 | 5 | 1.7 | 3.5 | 0.00 | 0.55 | 0.00 | 93 | 1010.1 |
| 20260509093038 | 58 | 5 | 0.0 | 2.6 | 0.00 | 0.55 | 0.00 | 93 | 1010.2 |
| 20260509092527 | 58 | 0 | 0.0 | 0.0 | 0.00 | 0.55 | 0.00 | 93 | 1010.1 |
| 20260509092031 | 58 | 0 | 0.0 | 0.0 | 0.00 | 0.55 | 0.00 | 93 | 1010.1 |
| 20260509091538 | 59 | 0 | 0.0 | 0.0 | 0.00 | 0.55 | 0.00 | 93 | 1010.1 |
| 20260509091030 | 59 | 0 | 0.0 | 0.0 | 0.00 | 0.55 | 0.00 | 93 | 1009.9 |
| 20260509090529 | 59 | 0 | 0.0 | 0.9 | 0.00 | 0.55 | 0.00 | 93 | 1009.9 |
| 20260509090046 | 59 | 0 | 0.0 | 0.9 | 0.00 | 0.55 | 0.00 | 93 | 1010.0 |
| 20260509085528 | 59 | 0 | 0.0 | 0.0 | 0.00 | 0.55 | 0.00 | 93 | 1010.0 |
| 20260509085031 | 59 | 0 | 0.0 | 0.0 | 0.00 | 0.55 | 0.00 | 93 | 1010.1 |
| 20260509084551 | 59 | 0 | 0.0 | 0.0 | 0.00 | 0.55 | 0.00 | 93 | 1010.1 |
| 20260509084028 | 59 | 0 | 0.0 | 0.0 | 0.00 | 0.55 | 0.00 | 93 | 1010.1 |
| 20260509083529 | 59 | 0 | 0.0 | 0.0 | 0.00 | 0.55 | 0.00 | 93 | 1010.1 |
| 20260509083045 | 59 | 0 | 0.0 | 0.0 | 0.00 | 0.55 | 0.00 | 93 | 1010.0 |
| 20260509082529 | 59 | 0 | 0.0 | 0.0 | 0.00 | 0.55 | 0.00 | 93 | 1010.1 |
| 20260509082030 | 60 | 0 | 0.0 | 0.0 | 0.00 | 0.55 | 0.00 | 93 | 1010.3 |
| 20260509081543 | 60 | 0 | 0.0 | 1.7 | 0.00 | 0.55 | 0.00 | 93 | 1010.4 |
| 20260509081032 | 60 | 0 | 0.0 | 1.7 | 0.00 | 0.55 | 0.00 | 93 | 1010.4 |
| 20260509080528 | 60 | 0 | 0.0 | 0.9 | 0.00 | 0.55 | 0.00 | 93 | 1010.4 |
| 20260509080038 | 60 | 0 | 0.0 | 0.9 | 0.00 | 0.55 | 0.00 | 93 | 1010.4 |
| 20260509075527 | 60 | 0 | 0.0 | 0.0 | 0.00 | 0.55 | 0.00 | 93 | 1010.5 |
| 20260509075028 | 60 | 0 | 0.0 | 0.0 | 0.00 | 0.55 | 0.00 | 93 | 1010.4 |
| 20260509074540 | 60 | 0 | 0.0 | 1.7 | 0.00 | 0.55 | 0.00 | 93 | 1010.4 |
| 20260509074032 | 60 | 0 | 0.0 | 1.7 | 0.00 | 0.55 | 0.00 | 93 | 1010.5 |
| 20260509073528 | 60 | 5 | 0.0 | 1.7 | 0.00 | 0.55 | 0.00 | 93 | 1010.6 |
| 20260509073041 | 60 | 0 | 0.0 | 0.0 | 0.00 | 0.55 | 0.00 | 93 | 1010.6 |
| 20260509072539 | 60 | 0 | 0.0 | 1.7 | 0.00 | 0.55 | 0.00 | 93 | 1010.7 |
| 20260509072027 | 60 | 0 | 0.0 | 1.7 | 0.00 | 0.55 | 0.00 | 93 | 1010.6 |
| 20260509071539 | 61 | 5 | 0.9 | 1.7 | 0.00 | 0.55 | 0.00 | 93 | 1010.8 |
| 20260509071028 | 61 | 5 | 0.0 | 1.7 | 0.00 | 0.55 | 0.00 | 93 | 1010.8 |
| 20260509070528 | 61 | 0 | 0.0 | 0.0 | 0.00 | 0.55 | 0.00 | 93 | 1010.9 |
| 20260509070044 | 61 | 0 | 0.0 | 0.0 | 0.00 | 0.55 | 0.00 | 93 | 1010.9 |
| 20260509065527 | 61 | 0 | 0.0 | 0.0 | 0.00 | 0.55 | 0.00 | 93 | 1010.7 |
| 20260509065031 | 61 | 0 | 0.0 | 0.0 | 0.00 | 0.55 | 0.00 | 93 | 1010.8 |
| 20260509064538 | 61 | 0 | 0.0 | 0.0 | 0.00 | 0.55 | 0.00 | 93 | 1010.9 |
| 20260509064029 | 61 | 0 | 0.0 | 0.0 | 0.00 | 0.55 | 0.00 | 93 | 1011.1 |
| 20260509063529 | 61 | 0 | 0.0 | 0.0 | 0.00 | 0.55 | 0.00 | 93 | 1011.1 |
| 20260509063038 | 62 | 0 | 0.0 | 0.0 | 0.00 | 0.55 | 0.00 | 93 | 1011.0 |
| 20260509062532 | 62 | 0 | 0.0 | 0.0 | 0.00 | 0.55 | 0.00 | 93 | 1011.1 |
| 20260509062029 | 62 | 0 | 0.0 | 0.0 | 0.00 | 0.55 | 0.00 | 93 | 1011.2 |
| 20260509061542 | 62 | 0 | 0.0 | 0.0 | 0.00 | 0.55 | 0.00 | 93 | 1011.3 |
| 20260509061029 | 62 | 0 | 0.0 | 0.0 | 0.00 | 0.55 | 0.00 | 93 | 1011.3 |
| 20260509060531 | 62 | 0 | 0.0 | 0.0 | 0.00 | 0.55 | 0.00 | 93 | 1011.3 |
| 20260509060040 | 62 | 0 | 0.0 | 0.0 | 0.00 | 0.55 | 0.00 | 93 | 1011.4 |
| 20260509055531 | 62 | 0 | 0.0 | 0.0 | 0.00 | 0.55 | 0.00 | 93 | 1011.4 |
| 20260509055028 | 62 | 0 | 0.0 | 1.7 | 0.00 | 0.55 | 0.00 | 93 | 1011.4 |
| 20260509054548 | 62 | 0 | 0.0 | 2.6 | 0.00 | 0.55 | 0.00 | 93 | 1011.4 |
| 20260509054027 | 62 | 0 | 0.0 | 2.6 | 0.00 | 0.55 | 0.00 | 93 | 1011.4 |
| 20260509053530 | 62 | 5 | 0.9 | 2.6 | 0.00 | 0.55 | 0.00 | 93 | 1011.4 |
| 20260509053131 | 61 | 0 | 0.0 | 2.6 | 0.00 | 0.55 | 0.00 | 93 | 1011.4 |
| 20260509052527 | 61 | 0 | 0.0 | 3.5 | 0.00 | 0.55 | 0.00 | 93 | 1011.2 |
| 20260509052028 | 61 | 5 | 0.0 | 3.5 | 0.00 | 0.55 | 0.00 | 93 | 1011.1 |
| 20260509051546 | 61 | 0 | 0.9 | 7.0 | 0.00 | 0.55 | 0.00 | 93 | 1010.9 |
| 20260509051029 | 61 | 0 | 1.7 | 7.0 | 0.00 | 0.55 | 0.00 | 93 | 1010.6 |
| 20260509050529 | 61 | 22 | 3.5 | 7.0 | 0.00 | 0.55 | 0.00 | 93 | 1010.2 |
| 20260509050047 | 61 | 360 | 1.7 | 4.3 | 0.00 | 0.55 | 0.00 | 92 | 1010.2 |
| 20260509045528 | 61 | 349 | 0.9 | 4.3 | 0.00 | 0.55 | 0.55 | 92 | 1010.0 |
| 20260509045029 | 61 | 0 | 0.9 | 4.3 | 0.00 | 0.55 | 0.55 | 92 | 1010.0 |
| 20260509044537 | 61 | 46 | 2.6 | 4.3 | 0.00 | 0.55 | 0.55 | 92 | 1010.0 |
| 20260509044028 | 61 | 36 | 1.7 | 4.3 | 0.00 | 0.55 | 0.55 | 92 | 1009.9 |
| 20260509043527 | 62 | 60 | 2.6 | 3.5 | 0.00 | 0.55 | 0.55 | 92 | 1009.9 |
| 20260509043037 | 62 | 81 | 0.9 | 2.6 | 0.00 | 0.55 | 0.55 | 92 | 1009.7 |
| 20260509042531 | 62 | 0 | 0.0 | 0.0 | 0.00 | 0.55 | 0.55 | 92 | 1009.7 |
| 20260509042027 | 62 | 0 | 0.0 | 0.0 | 0.00 | 0.55 | 0.55 | 92 | 1009.9 |
| 20260509041538 | 62 | 0 | 0.0 | 0.0 | 0.00 | 0.55 | 0.55 | 92 | 1009.9 |
| 20260509041029 | 62 | 0 | 0.0 | 0.0 | 0.00 | 0.55 | 0.55 | 92 | 1009.8 |
| 20260509040529 | 62 | 0 | 0.0 | 0.0 | 0.00 | 0.55 | 0.55 | 92 | 1009.9 |
| 20260509040101 | 62 | 0 | 0.0 | 0.0 | 0.00 | 0.55 | 0.55 | 92 | 1010.0 |
| 20260509035528 | 62 | 0 | 0.0 | 0.9 | 0.00 | 0.55 | 0.55 | 92 | 1010.1 |
| 20260509035031 | 62 | 0 | 0.0 | 0.9 | 0.00 | 0.55 | 0.55 | 92 | 1010.0 |
| 20260509034541 | 62 | 0 | 0.0 | 1.7 | 0.00 | 0.55 | 0.55 | 92 | 1009.9 |
| 20260509034031 | 62 | 0 | 0.0 | 1.7 | 0.00 | 0.55 | 0.55 | 91 | 1010.0 |
| 20260509033528 | 62 | 0 | 0.0 | 2.6 | 0.00 | 0.55 | 0.55 | 91 | 1010.0 |
| 20260509033049 | 62 | 0 | 0.9 | 2.6 | 0.00 | 0.55 | 0.55 | 92 | 1010.0 |
| 20260509032527 | 63 | 143 | 0.9 | 2.6 | 0.00 | 0.55 | 0.55 | 92 | 1009.8 |
| 20260509032028 | 63 | 143 | 1.7 | 2.6 | 0.00 | 0.55 | 0.55 | 91 | 1009.8 |
| 20260509031541 | 63 | 143 | 0.9 | 3.5 | 0.00 | 0.55 | 0.55 | 91 | 1009.7 |
| 20260509031028 | 63 | 143 | 0.9 | 3.5 | 0.00 | 0.55 | 0.55 | 91 | 1009.6 |
| 20260509030527 | 63 | 132 | 0.9 | 5.2 | 0.00 | 0.55 | 0.55 | 91 | 1009.5 |
| 20260509030109 | 63 | 119 | 1.7 | 5.2 | 0.00 | 0.55 | 0.55 | 91 | 1009.5 |
| 20260509025529 | 63 | 145 | 1.7 | 5.2 | 0.00 | 0.55 | 0.55 | 91 | 1009.5 |
| 20260509025028 | 63 | 115 | 1.7 | 4.3 | 0.00 | 0.55 | 0.55 | 91 | 1009.3 |
| 20260509024544 | 63 | 157 | 0.9 | 3.5 | 0.00 | 0.55 | 0.55 | 92 | 1009.1 |
| 20260509024026 | 63 | 157 | 1.7 | 3.5 | 0.00 | 0.55 | 0.55 | 91 | 1009.1 |
| 20260509023529 | 63 | 175 | 0.9 | 2.6 | 0.00 | 0.55 | 0.55 | 91 | 1009.0 |
| 20260509023046 | 63 | 0 | 0.0 | 5.2 | 0.00 | 0.55 | 0.55 | 91 | 1008.8 |
| 20260509022532 | 64 | 135 | 1.7 | 5.2 | 0.00 | 0.55 | 0.55 | 91 | 1008.6 |
| 20260509022030 | 64 | 161 | 2.6 | 5.2 | 0.00 | 0.55 | 0.55 | 91 | 1008.6 |
| 20260509021538 | 64 | 217 | 1.7 | 2.6 | 0.00 | 0.55 | 0.55 | 91 | 1008.4 |
| 20260509021026 | 64 | 90 | 0.9 | 4.3 | 0.00 | 0.55 | 0.55 | 91 | 1008.4 |
| 20260509020528 | 64 | 0 | 1.7 | 4.3 | 0.00 | 0.55 | 0.55 | 91 | 1008.4 |
| 20260509020044 | 64 | 223 | 1.7 | 4.3 | 0.00 | 0.55 | 0.55 | 91 | 1008.4 |
| 20260509015526 | 63 | 300 | 0.9 | 3.5 | 0.00 | 0.55 | 0.55 | 91 | 1008.6 |
| 20260509015027 | 63 | 26 | 1.7 | 3.5 | 0.00 | 0.55 | 0.55 | 91 | 1008.5 |
| 20260509014540 | 63 | 0 | 0.0 | 4.3 | 0.00 | 0.55 | 0.55 | 91 | 1008.8 |
| 20260509014027 | 64 | 296 | 1.7 | 7.0 | 0.00 | 0.55 | 0.55 | 91 | 1008.7 |
| 20260509013530 | 64 | 0 | 2.6 | 7.0 | 0.00 | 0.55 | 0.55 | 91 | 1008.8 |
| 20260509013042 | 64 | 153 | 1.7 | 6.1 | 0.00 | 0.55 | 0.55 | 91 | 1008.7 |
| 20260509012527 | 64 | 167 | 3.5 | 6.1 | 0.00 | 0.55 | 0.55 | 91 | 1008.6 |
| 20260509012027 | 64 | 121 | 2.6 | 7.8 | 0.00 | 0.55 | 0.55 | 90 | 1008.3 |
| 20260509011546 | 64 | 34 | 1.7 | 7.8 | 0.00 | 0.55 | 0.55 | 90 | 1007.9 |
| 20260509011027 | 64 | 19 | 4.3 | 7.8 | 0.00 | 0.55 | 0.55 | 90 | 1008.0 |
| 20260509010526 | 64 | 83 | 4.3 | 7.8 | 0.00 | 0.55 | 0.55 | 91 | 1007.7 |
| 20260509010044 | 64 | 120 | 2.6 | 5.2 | 0.00 | 0.55 | 0.55 | 91 | 1007.5 |
| 20260509005526 | 63 | 146 | 0.9 | 3.5 | 0.00 | 0.55 | 0.55 | 90 | 1007.2 |
| 20260509005027 | 63 | 293 | 1.7 | 5.2 | 0.03 | 0.55 | 0.55 | 90 | 1007.3 |
| 20260509004543 | 63 | 242 | 0.9 | 5.2 | 0.22 | 0.55 | 0.55 | 90 | 1007.1 |
| 20260509004028 | 63 | 248 | 2.6 | 5.2 | 0.55 | 0.55 | 0.55 | 90 | 1007.1 |
| 20260509003526 | 63 | 9 | 0.0 | 2.6 | 0.55 | 0.55 | 0.55 | 89 | 1007.0 |
| 20260509003102 | 63 | 9 | 0.9 | 5.2 | 0.55 | 0.55 | 0.55 | 89 | 1007.2 |
| 20260509002525 | 63 | 217 | 2.6 | 5.2 | 0.55 | 0.55 | 0.55 | 88 | 1007.1 |
| 20260509002026 | 62 | 191 | 2.6 | 5.2 | 0.55 | 0.55 | 0.55 | 88 | 1007.1 |
| 20260509001538 | 62 | 190 | 3.5 | 7.0 | 0.55 | 0.55 | 0.55 | 87 | 1006.9 |
| 20260509001026 | 62 | 136 | 2.6 | 7.0 | 0.55 | 0.55 | 0.55 | 86 | 1006.8 |
| 20260509000531 | 62 | 67 | 3.5 | 9.6 | 0.55 | 0.55 | 0.55 | 86 | 1006.8 |